RH
53 54 56 48 42 34 28 27 93 72 68 90 83 97 89 82 73 77 58 41 26 36 73 81 74 71 67 64 62 63 65 58 55 53 43 26 29 44 46 42 40 45 44 43 38
55 54 56 58 55 42 37 35 30 55 94 97 99 90 88 85 77 72 65 55 32 28 43 84 80 77 71 70 67 67 65 56 53 58 55 35 26 37 45 44 44 45 44 42 41
54 54 55 60 53 42 39 36 35 38 43 63 72 82 96 89 71 57 74 66 48 28 34 64 89 86 80 76 71 71 69 54 52 62 64 40 20 25 41 44 45 44 45 43 41
56 54 56 59 52 45 47 46 49 38 40 53 53 68 67 78 83 60 64 69 58 34 33 47 87 93 84 81 75 75 70 57 54 61 65 51 37 20 28 37 44 45 43 42 38
63 61 58 60 52 43 52 48 48 73 69 59 51 59 75 78 52 73 71 62 63 41 35 72 75 90 84 77 78 80 71 62 60 62 63 64 45 32 19 28 34 37 38 38 37
74 75 73 63 60 45 57 55 45 54 66 66 68 79 87 78 58 76 79 66 64 49 34 74 69 65 92 89 82 80 72 65 68 59 65 64 50 60 15 14 23 26 27 26 34
80 85 84 72 74 67 54 66 64 55 62 77 86 88 76 47 78 66 78 68 65 54 34 52 62 82 96 93 89 87 82 80 64 56 56 62 49 23 20 15 14 16 15 15 26
84 97 96 90 85 68 64 75 83 70 60 73 82 91 61 72 77 63 76 69 65 56 40 48 71 82 96 98 94 93 91 88 52 58 60 56 30 14 30 14 25 31 20 21 27
100 100 100 98 83 95 75 74 80 78 78 77 77 88 83 67 68 55 69 70 64 55 42 66 89 98 98 96 91 86 85 82 67 62 49 39 24 29 24 30 38 38 32 26 31
100 100 99 100 90 94 98 99 79 86 85 82 78 99 73 67 69 65 68 68 67 54 43 98 97 97 96 99 98 78 79 76 72 64 45 41 32 29 38 39 38 36 37 36 32
100 100 99 99 96 98 98 97 91 87 84 68 60 64 73 66 71 65 68 66 74 53 64 87 98 98 86 69 71 83 84 76 67 58 48 40 37 28 34 37 33 32 34 36 33
100 99 99 99 97 98 99 99 91 83 80 74 69 70 66 78 69 72 81 77 74 53 87 100 97 95 89 73 86 86 94 85 68 65 50 45 40 32 32 31 28 30 32 34 34
100 100 99 99 98 98 98 100 98 96 96 81 66 63 75 96 81 67 76 95 81 56 85 98 95 92 94 84 94 97 98 81 74 68 62 46 38 29 30 32 32 30 34 36 35
100 100 99 99 98 98 95 98 97 97 97 88 83 66 89 92 83 65 78 86 78 56 96 100 100 100 96 90 85 96 77 78 80 83 54 49 54 40 26 33 34 35 36 35 34
99 100 100 99 98 98 98 98 98 98 96 85 83 79 78 91 72 66 75 99 79 50 95 95 95 100 100 85 80 80 66 85 86 63 52 51 51 38 28 27 32 31 36 33 33
92 100 100 99 98 98 99 98 98 98 95 84 84 87 95 75 79 60 59 79 96 51 81 100 90 98 90 92 92 84 95 83 68 53 61 47 49 34 28 33 33 33 36 36 36
38 97 100 100 98 98 98 98 98 98 94 80 84 90 90 82 92 70 65 85 95 79 96 93 89 94 88 97 97 99 96 83 64 66 70 43 46 34 23 33 31 33 35 37 38
34 50 82 99 99 98 98 98 99 98 82 77 72 63 86 69 98 83 99 100 99 59 88 96 98 99 100 86 89 100 96 57 71 74 61 49 46 28 28 29 29 30 37 39 40
40 45 63 98 100 99 98 99 94 84 98 99 76 57 66 84 96 92 97 99 99 84 80 99 91 93 85 71 84 98 88 56 56 64 68 53 42 35 32 35 31 32 33 38 42
41 44 67 97 100 98 99 98 99 98 95 96 99 87 96 97 99 99 99 98 99 88 64 87 85 83 88 96 93 80 62 58 55 66 70 57 45 40 37 36 34 30 34 39 44
46 61 73 97 100 99 98 98 100 96 87 91 89 88 96 82 99 99 93 99 99 99 68 69 68 83 83 84 88 71 58 54 51 53 64 65 41 36 35 36 35 35 40 44 48
61 70 84 100 99 99 99 99 99 91 86 81 76 96 87 96 99 100 99 99 97 82 68 72 59 70 58 56 57 55 54 51 49 54 52 50 47 40 35 35 36 40 47 49 42
84 86 95 100 100 100 100 99 99 94 88 90 91 89 86 91 92 97 100 95 95 79 69 64 56 77 79 63 56 56 55 52 49 46 45 52 43 37 36 34 36 46 45 46 46
94 93 94 92 100 100 100 99 99 99 100 100 93 92 90 87 76 87 93 95 80 73 72 60 55 53 72 65 59 56 55 54 51 52 50 48 45 40 35 34 37 42 41 43 48
85 80 89 92 96 100 100 100 100 100 100 100 98 84 83 93 82 76 79 84 94 72 70 76 57 50 46 48 51 54 44 47 52 48 52 49 50 49 42 37 40 41 42 47 49
56 59 84 87 94 100 100 100 100 100 99 98 87 90 86 70 74 70 78 71 75 86 68 85 62 61 58 49 54 53 50 49 47 49 52 56 51 44 42 42 45 47 48 45 53
40 63 77 92 99 96 99 98 100 98 100 90 76 89 81 83 69 62 69 66 64 66 70 75 60 56 54 56 57 55 51 49 54 56 56 56 52 51 49 39 45 53 54 54 53
Wind_Speed
23 26 27 25 26 28 32 38 43 40 38 39 37 35 35 33 41 44 48 41 43 45 43 38 35 31 28 25 23 19 20 22 18 15 13 9 13 10 10 15 17 15 14 14 12
23 25 24 24 25 25 27 32 36 40 43 39 42 37 35 36 38 48 43 40 39 42 44 42 37 32 30 27 25 22 24 22 16 12 16 14 16 15 16 17 16 17 17 15 16
23 23 22 21 20 19 22 25 29 35 41 43 48 45 43 40 42 46 41 38 36 40 43 43 40 33 31 29 28 28 29 21 16 13 17 18 16 21 21 20 15 19 19 18 16
21 21 23 22 19 18 19 20 22 26 30 35 39 37 38 40 36 35 41 38 35 38 42 43 41 38 35 33 30 29 26 22 16 12 18 19 20 22 28 24 18 19 21 20 20
21 22 24 22 19 18 18 19 21 22 25 28 30 33 34 38 46 23 16 38 38 41 42 38 41 37 38 35 30 31 27 21 17 17 18 21 21 22 33 26 22 23 25 24 21
19 22 25 23 19 17 18 17 17 20 24 23 27 29 32 38 37 34 18 22 39 42 41 37 35 35 34 33 30 30 25 22 23 21 21 22 24 27 25 26 24 29 30 29 29
17 21 25 21 17 17 19 17 18 17 21 20 24 25 34 35 23 31 31 21 38 40 39 37 34 35 32 27 29 26 26 25 26 24 21 24 32 25 18 18 26 30 33 28 26
21 24 22 22 13 16 19 19 18 19 18 17 19 26 37 36 23 22 37 24 36 40 38 34 32 32 29 25 19 20 25 28 27 19 17 21 30 19 9 19 18 18 19 18 19
23 25 22 20 14 14 18 17 18 19 19 18 22 26 36 32 26 26 36 30 32 42 39 34 34 33 31 22 22 19 21 18 17 9 14 15 26 5 11 13 11 10 7 15 18
22 22 21 19 15 13 18 16 18 22 23 23 25 22 28 20 23 27 28 34 28 42 41 41 37 35 37 32 18 23 21 18 20 9 14 18 23 9 11 12 12 11 10 12 15
20 19 19 17 14 15 19 22 23 25 29 30 26 32 9 27 16 26 28 35 28 44 49 43 41 44 42 38 33 19 21 17 13 10 18 15 21 17 16 16 16 13 15 17 17
16 17 18 15 14 13 17 22 24 22 23 25 29 23 26 18 18 25 32 33 33 48 44 36 45 41 36 35 29 24 17 21 20 15 17 19 21 19 17 20 18 16 15 16 17
18 20 17 14 13 15 16 19 20 21 21 24 27 29 19 19 20 28 36 31 33 44 49 37 29 39 40 38 35 32 28 19 19 17 22 25 28 19 12 20 23 16 18 15 13
17 21 23 13 16 15 15 14 18 22 16 18 30 28 25 23 22 28 37 32 28 45 47 27 32 36 43 38 33 34 26 21 17 18 15 12 11 29 24 19 15 16 15 12 11
19 18 22 14 4 9 12 17 12 13 1 8 24 18 27 30 17 30 36 28 26 44 46 26 30 30 40 38 31 30 24 22 20 18 21 22 14 9 14 14 15 16 14 11 10
16 19 18 16 12 10 10 13 21 8 5 16 20 28 26 27 17 30 40 35 17 32 47 22 14 26 29 31 25 28 18 6 11 14 7 20 18 15 8 6 13 18 15 11 10
17 17 21 22 17 11 10 18 14 6 14 15 26 31 25 31 23 33 47 44 25 33 39 24 20 28 27 31 21 30 18 2 3 4 6 7 9 21 7 11 12 10 16 13 12
16 18 18 23 12 16 13 21 8 5 22 19 27 26 24 32 21 30 38 38 25 30 38 22 16 30 24 36 31 25 28 8 6 4 4 7 9 4 5 9 13 12 14 15 11
16 15 14 14 14 19 14 22 8 10 13 21 28 28 27 37 15 28 44 27 32 24 29 22 15 29 23 28 36 22 34 22 2 3 2 6 10 13 14 10 7 14 16 16 11
14 13 12 16 16 12 17 17 8 10 19 25 19 21 19 32 17 21 35 34 26 35 30 18 12 25 29 22 28 24 29 17 14 3 4 4 8 10 7 4 6 14 17 17 13
12 9 11 13 10 21 20 14 5 8 19 22 17 22 17 29 15 21 27 22 35 40 30 23 14 26 28 25 31 30 32 22 11 9 4 1 3 4 5 5 5 9 13 13 11
10 8 9 6 8 11 14 5 11 21 18 17 18 16 25 32 21 9 15 15 38 44 37 23 16 32 27 17 27 30 27 29 17 6 9 5 13 16 9 5 12 12 13 10 10
6 7 11 11 6 7 2 9 24 25 23 19 16 20 22 29 14 19 13 28 39 45 42 27 12 20 17 22 23 32 32 27 23 20 18 7 6 8 6 6 10 12 11 14 17
5 6 9 13 12 10 1 14 21 23 10 15 19 14 27 22 14 18 18 33 41 33 29 29 16 20 21 20 28 29 34 32 31 22 19 24 19 14 7 12 13 17 19 20 19
11 10 9 8 9 12 7 3 13 15 13 16 20 18 36 22 20 23 28 29 40 34 23 26 16 19 20 21 26 34 32 34 37 37 26 30 28 25 17 17 19 21 22 22 24
18 14 14 13 11 12 8 6 16 20 20 19 27 30 28 25 19 29 33 37 38 37 28 19 11 14 13 19 18 25 27 29 34 37 35 34 21 16 16 16 20 24 26 23 18
15 12 12 6 11 11 10 3 10 22 14 22 29 27 14 12 20 24 24 34 36 41 32 21 11 12 8 12 10 11 22 22 27 32 33 33 31 27 24 23 19 17 17 17 19
Wind_Direction
306 300 293 283 273 261 257 252 249 254 251 248 250 249 250 252 251 245 239 233 230 231 228 229 232 237 240 242 245 244 248 256 263 279 285 275 244 232 227 213 220 223 242 250 259
306 300 297 291 281 269 261 254 251 245 244 240 241 243 249 254 249 248 239 233 227 229 229 226 228 232 235 238 238 236 244 255 262 280 288 277 256 242 231 222 216 223 240 251 261
308 308 305 296 286 271 262 257 252 247 245 249 248 256 256 254 256 247 244 234 226 225 226 225 224 224 232 236 237 242 247 251 258 278 289 282 255 255 243 225 227 234 244 256 268
316 321 315 307 284 266 259 257 258 253 247 246 248 248 246 246 251 256 244 235 220 221 222 222 220 219 223 229 234 242 247 250 251 270 283 286 277 258 248 241 235 246 253 261 271
323 322 315 307 283 272 262 259 257 250 247 242 236 239 236 237 240 235 239 231 215 212 215 215 217 219 225 229 234 241 247 250 260 270 273 276 278 280 246 248 250 256 257 264 267
322 323 317 304 282 266 255 254 256 252 251 245 234 237 237 240 243 232 229 221 213 212 206 205 214 219 227 231 234 245 252 256 257 258 271 283 278 276 248 256 249 255 254 258 262
328 321 313 306 279 254 252 250 252 252 251 250 239 234 243 237 243 222 212 213 201 208 210 205 211 211 222 230 237 243 254 257 254 260 273 289 277 272 286 254 248 256 256 261 259
328 327 311 305 284 257 248 245 247 244 235 246 245 234 240 239 233 221 209 208 199 201 201 201 207 214 215 222 226 233 247 259 255 270 279 287 281 316 231 233 247 267 273 263 255
319 315 304 295 277 274 265 252 249 243 233 225 228 236 242 242 227 213 209 205 198 194 195 189 198 203 210 214 219 226 236 249 271 253 275 282 280 326 233 241 246 275 278 248 248
310 309 304 287 266 267 257 254 241 241 228 219 225 234 234 244 225 214 205 201 198 191 187 191 195 203 205 200 199 209 219 236 249 266 282 275 277 262 246 253 260 273 260 250 250
319 315 306 290 258 278 257 224 225 223 220 224 229 228 215 231 219 210 198 198 200 190 185 191 192 201 203 210 213 224 233 242 250 266 296 293 275 286 242 244 253 258 258 259 273
326 317 301 285 258 263 264 257 235 237 235 227 229 231 227 257 222 200 189 196 197 191 181 195 200 201 203 208 213 214 222 234 248 261 301 294 281 272 265 255 252 260 247 252 258
304 313 304 275 259 252 260 272 238 230 233 237 230 223 222 230 205 199 187 194 200 191 184 196 203 205 208 209 212 223 232 237 254 269 283 300 298 290 284 266 255 256 228 240 252
298 309 324 276 273 249 263 265 228 241 227 242 217 225 212 214 212 194 190 186 199 194 184 193 208 192 204 209 212 220 230 249 251 282 287 301 290 287 290 279 251 231 230 238 240
315 299 325 272 297 264 268 277 213 171 207 205 204 194 201 189 197 188 193 177 205 191 183 195 209 205 198 211 215 224 232 239 262 273 286 285 281 287 286 283 231 223 230 223 236
303 314 301 287 275 269 257 172 166 212 229 169 178 180 186 188 185 184 187 196 204 195 191 199 194 209 205 203 218 219 227 242 249 267 270 283 241 284 300 322 241 228 227 220 222
301 296 309 305 253 224 191 165 179 224 159 180 176 178 184 180 181 190 187 190 165 174 192 196 214 208 216 207 211 213 211 252 235 227 230 262 254 256 255 285 295 251 230 222 219
303 295 304 309 261 243 212 178 215 234 173 175 176 177 183 181 188 185 178 200 185 189 175 186 191 195 200 213 210 208 196 183 199 203 260 253 241 280 283 275 259 219 221 226 226
304 299 306 295 283 255 198 180 235 183 169 163 165 176 191 192 171 186 198 210 191 178 173 183 193 188 202 218 207 204 206 212 305 283 295 241 270 285 276 279 256 210 203 213 224
305 300 294 294 298 239 221 233 257 210 169 166 152 181 181 203 166 186 195 205 195 173 181 173 161 197 201 204 209 220 204 207 219 229 249 272 275 258 293 294 261 215 201 206 218
303 301 287 301 258 213 228 260 214 194 170 157 167 160 196 197 191 167 190 188 191 184 180 177 175 180 191 200 202 200 200 208 204 221 175 303 289 324 318 236 156 162 188 205 225
292 288 290 308 156 223 242 259 170 159 169 156 177 183 185 187 170 151 166 168 181 182 178 182 186 176 186 198 202 209 210 214 212 205 223 253 269 294 317 186 163 173 180 209 244
290 286 278 276 270 246 263 161 162 165 173 190 194 195 188 177 161 198 152 165 179 183 182 178 181 153 184 208 206 215 218 222 226 235 233 197 253 312 249 226 207 178 199 227 244
241 276 290 278 268 281 8 179 179 192 194 174 190 184 173 170 188 180 169 172 171 170 183 197 190 194 197 209 209 213 220 223 229 231 234 238 251 280 273 246 224 211 228 240 253
236 267 282 278 270 249 243 223 215 166 158 188 175 187 160 159 157 173 174 168 176 176 189 190 209 202 216 217 222 227 233 229 229 234 231 250 256 259 255 236 229 233 240 250 272
244 252 281 276 256 219 235 238 183 176 164 166 168 160 174 183 178 175 183 181 179 183 202 193 189 195 198 205 209 223 232 235 238 240 242 246 246 234 236 238 238 241 255 273 272
238 247 269 234 215 216 232 311 193 167 163 163 168 156 164 145 173 175 182 182 184 187 194 201 191 190 192 203 217 244 233 235 234 234 236 240 248 252 255 258 246 246 260 271 282